386  
ASUS41 KOKX 201913  
RWROKX  
 
REGIONAL WEATHER ROUNDUP  
NATIONAL WEATHER SERVICE NEW YORK NY  
200 PM EST WED FEB 20 2019  
 
NOTE: "FAIR" INDICATES FEW OR NO CLOUDS BELOW 12,000 FEET WITH NO  
SIGNIFICANT WEATHER AND/OR S TO VISIBILITY
.  
 
NYZ071-072-176-178-NJZ106-104-202000-  
NEW YORK CITY METRO AREA  
 
CITY SKY/WX TMP DP RH WIND PRES REMARKS
 
CENTRAL PARK LGT SNOW 28 24 85 MISG 30.49F VSB 1  
BRONX LEHMAN C N/A 28 25 86 E6 N/A WCI 22  
LAGUARDIA ARPT LGT SNOW 27 22 81 E9 30.48F WCI 18  
QUEENS COLLEGE N/A 27 25 93 E10 N/A WCI 17  
KENNEDY INTL LGT SNOW 27 25 92 E10 30.50F FOG WCI 17  
BREEZY POINT N/A N/A N/A N/A E12 N/A  
BROOKLYN COLL N/A 28 27 93 E9 N/A WCI 20  
STATEN ISLAND N/A 30 28 93 E8 N/A WCI 23  
NEWARK/LIBERTY LGT SNOW 29 26 89 E9 30.47F VSB 3/4 WCI 20  
TETERBORO SNOW 28 24 85 E5 30.48F VSB 1/2 WCI 23  

 
 
NYZ177-179-078>081-202000-  
LONG ISLAND NEW YORK  
 
CITY SKY/WX TMP DP RH WIND PRES REMARKS
 
JONES BEACH N/A N/A N/A N/A E7 N/A  
WANTAGH N/A 28 27 93 E6 N/A WCI 22  
HEMPSTEAD N/A 28 27 93 E7 30.52F WCI 21  
MATINECOCK PT N/A N/A N/A N/A E5 N/A  
FARMINGDALE FOG 26 22 84 E6 30.49F VSB 3/4 WCI 19  
MACARTHUR/ISP LGT SNOW 27 24 89 SE3 30.50F VSB 1  
STONY BROOK N/A 28 23 80 S5 N/A WCI 23  
SHIRLEY LGT SNOW 27 22 81 S3 30.51F  
MT SINAI HARB N/A N/A N/A N/A S3 N/A  
WESTHAMPTON LGT SNOW 28 20 71 S5 30.53F WCI 23  
EAST HAMPTON CLOUDY 30 16 54 S6 30.51F WCI 24  
SOUTHOLD N/A 32 18 55 S5 N/A WCI 27  
MONTAUK N/A 29 16 58 S3 30.52S  

 
 
NYZ052-065-067-202000-  
HUDSON VALLEY  
 
CITY SKY/WX TMP DP RH WIND PRES REMARKS
 
WHITE PLAINS LGT SNOW 25 20 81 E5 30.46F FOG WCI 19  
LARCHMONT HARB N/A N/A N/A N/A E5 N/A  
CROTON ON HUDS N/A N/A N/A N/A SE1 N/A  
SOMERS N/A 27 19 74 S3 N/A  
BREWSTER N/A 27 16 63 S3 N/A  
NEWBURGH LGT SNOW 27 21 80 CALM 30.47F FOG  
MONTGOMERY CLOUDY 25 20 81 SW5 30.45F WCI 19  
OTISVILLE N/A 25 21 86 E1 N/A  
WARWICK N/A 25 23 93 E5 N/A WCI 19  
SUFFERN N/A 27 23 86 E2 N/A  
POUGHKEEPSIE FLURRIES 27 15 61 S5 30.48F WCI 22  
ALBANY CLOUDY 26 11 52 S6 30.47F WCI 19  

 
 
NJZ001-105-106-008-010-013-015-019>022-104-202000-  
NEW JERSEY  
 
CITY SKY/WX TMP DP RH WIND PRES REMARKS
 
NEWARK/LIBERTY LGT SNOW 29 26 89 E9 30.47F VSB 3/4 WCI 20  
TETERBORO SNOW 28 24 85 E5 30.48F VSB 1/2 WCI 23  
CALDWELL LGT SNOW 27 24 89 E6 30.47F VSB 3/4 WCI 20  
SOMERVILLE LGT SNOW 28 26 92 CALM 30.43F VSB 1  
LINDEN LGT SNOW 29 26 89 CALM 30.47F VSB 1  
PERTH AMBOY N/A N/A N/A N/A E14 N/A  
SUSSEX SNOW 25 22 88 NE3 30.44F VSB 1/2  
ANDOVER N/A 24 21 88 CALM 30.42F  
TRENTON LGT SNOW 30 25 81 E5 30.43F VSB 1 WCI 25  
MILLVILLE CLOUDY 31 29 92 E7 30.41F FOG WCI 24  
ATLANTIC CITY LGT SNOW 33 33 100 E8 30.44F FOG WCI 26  
WRIGHTSTOWN NOT AVBL  
TOMS RIVER LGT SNOW 34 30 86 E5 30.44F VSB 1 WCI 30  
BELMAR LGT SNOW 30 29 96 E12 30.45F FOG WCI 20  

 
 
PAZ047>061-062-071-202000-  
EASTERN PENNSYLVANIA  
 
CITY SKY/WX TMP DP RH WIND PRES REMARKS
 
PHILADELPHIA LGT SNOW 29 26 89 E8 30.44 VSB 1 WCI 21  
ALLENTOWN LGT SNOW 28 22 78 E6 30.41F VSB 3/4 WCI 22  
SCRANTON LGT SNOW 26 23 88 CALM 30.35F VSB 3/4  

 
 
CTZ002-004>006-009-010-012-RIZ004-006-007-MAZ004-011-015-202000-  
SOUTHERN NEW ENGLAND  
 
IN CT  
 
CITY SKY/WX TMP DP RH WIND PRES REMARKS
 
BRADLEY INTL CLOUDY 27 10 49 S7 30.49F WCI 19  
HARTFORD CLOUDY 29 11 47 S7 30.51F WCI 22  
DANBURY LGT SNOW 26 15 63 S6 30.48F WCI 19  
WTRBURY/OXFORD LGT SNOW 27 12 54 VRB7 30.46F FOG WCI 19  
NORWALK HARBOR N/A N/A N/A N/A S5 N/A  
BRIDGEPORT LGT SNOW 28 19 69 SW8 30.52F WCI 20  
MERIDEN CLOUDY 28 14 55 S8 30.51F WCI 20  
NEW HAVEN CLOUDY 30 16 56 S9 30.52F WCI 22  
CHESTER FAIR 28 12 50 S7 30.49F WCI 21  
GROTON CLOUDY 29 11 47 S6 30.52S WCI 23  
WILLIMANTIC CLOUDY 27 8 44 VRB3 30.50S  
 
IN RI  
 
CITY SKY/WX TMP DP RH WIND PRES REMARKS
 
PROVIDENCE CLOUDY 27 8 44 S3 30.51F  
BLOCK ISLAND CLOUDY 29 14 53 S5 30.52 WCI 24  
WESTERLY CLOUDY 30 8 39 S5 30.52F WCI 25  
 
IN MA  
 
CITY SKY/WX TMP DP RH WIND PRES REMARKS
 
BOSTON CLOUDY 29 6 38 SW5 30.50F WCI 24  
WORCESTER PTSUNNY 24 7 48 SW7 30.41F WCI 16  
WESTFIELD CLOUDY 25 10 53 S7 30.48F WCI 17  
PROVINCETOWN FAIR 28 14 55 W6 30.52F WCI 22  
NANTUCKET FAIR 28 12 51 CALM 30.51F  

 
 
ANZ330-335-338-340-345-350-353-355-202000-  
COASTAL MARINE OBSERVATIONS  
 
 
STATION/POSITION TIME SKY/WX TEMP WIND PRES VSBY WAVE
 
AIR SEA DIR/SP/G HT/PER  
(UTC) (F) (DEG/KT/KT) (MB) (MI) (FT/S)  
NY HARB ENTRANCE 1850 29 40 100/ 12/ 14 1032.6 1/ 9  
20 S FIRE ISLAND 1850 30 40 120/ 10/ 12 1033.0 1/ 8  
GREAT SOUTH BAY NOT AVBL  
23 SSW MONTAUK P 1850 31 39 190/ 12/ 16 1033.8 1/ 8  
15 E BARNEGAT LI 1830 41 N/A 2/ 4  
HUDSON CANYON NOT AVBL  
KINGS POINT 1848 25 34 170/ 4/ 6 1033.5  
EXECUTION ROCKS NOT AVBL  
WESTERN LI SOUND NOT AVBL  
CENTRAL LI SOUND NOT AVBL  
ROBBINS REEF 1848 28 130/ 11/ 13 1032.6  

 
 
>>>>>>>>>>>>>>>>>>>>>>>>>>>> KEY <<<<<<<<<<<<<<<<<<<<<<<<<<<  
> <  
> SKY/WX - SKY CONDITION/PRESENT WEATHER <  
> TMP - TEMPERATURE IN FAHRENHEIT <  
> DP - DEW POINT IN FAHRENHEIT <  
> RH - RELATIVE HUMIDITY IN PERCENT <  
> WIND - DIRECTION (FROM) AND SPEED IN MPH <  
> PRES - MEAN SEA LEVEL PRESSURE (INCHES OF HG) <  
> WCI - WIND CHILL INDEX <  
> VSB - VISIBILITY IN MILES <  
> HX - HEAT INDEX <  
> TC - TEMPERATURE IN CELSIUS <  
> VRB - VARIABLE WIND DIRECTION <  
> <  
>>>>>>>>>>>>>>>>>>>>>>>>>>>> KEY <<<<<<<<<<<<<<<<<<<<<<<<<<<  
 
 
CLICK HERE TO GO TO PREVIOUS BULLETINS.

The Nexlab NY Page
The Nexlab NJ Page
The Nexlab CT Page Main Text Page